Temp
-16 -17 -17 -17 -17 -16 -16 -16 -16 -16 -16 -16 -16 -16 -16 -16 -16 -16 -16 -16 -16 -16 -16 -16 -15 -15 -15 -15 -15 -15 -15 -15 -15 -15 -15 -15 -16 -15 -15 -15 -15 -15
-17 -17 -17 -17 -17 -17 -17 -16 -16 -16 -17 -17 -17 -17 -16 -16 -16 -16 -16 -16 -16 -16 -16 -16 -16 -16 -16 -16 -16 -16 -16 -16 -16 -16 -16 -16 -16 -16 -16 -16 -15 -15
-17 -17 -17 -17 -17 -17 -17 -17 -17 -17 -17 -17 -17 -17 -17 -17 -17 -17 -17 -16 -16 -16 -16 -16 -16 -16 -16 -16 -16 -16 -16 -16 -16 -16 -16 -16 -16 -16 -16 -16 -16 -16
-17 -17 -17 -17 -17 -17 -17 -18 -17 -17 -17 -17 -17 -17 -17 -17 -17 -17 -17 -17 -17 -17 -17 -17 -16 -16 -16 -16 -16 -16 -16 -16 -16 -16 -16 -16 -16 -16 -16 -16 -16 -16
-17 -17 -17 -17 -17 -17 -18 -18 -18 -18 -18 -18 -18 -17 -17 -17 -17 -17 -17 -17 -17 -17 -17 -17 -17 -17 -17 -17 -17 -17 -17 -17 -17 -17 -17 -17 -17 -17 -16 -16 -16 -16
-17 -17 -17 -17 -17 -17 -18 -18 -18 -18 -18 -18 -18 -18 -17 -17 -18 -18 -18 -18 -18 -18 -18 -17 -17 -17 -17 -17 -17 -17 -17 -17 -17 -17 -17 -17 -17 -17 -17 -17 -17 -17
-17 -17 -17 -17 -17 -17 -18 -18 -18 -18 -18 -18 -18 -18 -18 -18 -18 -18 -18 -18 -18 -18 -18 -18 -18 -17 -17 -17 -17 -17 -17 -17 -17 -17 -17 -17 -17 -17 -17 -17 -17 -17
-18 -17 -17 -17 -17 -17 -18 -18 -18 -18 -18 -18 -18 -18 -18 -18 -18 -18 -18 -18 -18 -18 -18 -18 -18 -18 -18 -18 -18 -18 -18 -18 -18 -17 -17 -17 -17 -18 -18 -18 -17 -17
-18 -17 -17 -17 -17 -18 -18 -18 -18 -18 -18 -18 -18 -18 -18 -19 -19 -19 -18 -18 -18 -18 -18 -18 -18 -18 -18 -18 -18 -18 -18 -18 -18 -18 -18 -18 -18 -18 -18 -18 -18 -18
-18 -17 -17 -18 -18 -18 -18 -18 -18 -18 -18 -18 -18 -18 -18 -18 -19 -19 -19 -18 -18 -18 -19 -19 -18 -18 -18 -18 -18 -18 -18 -18 -18 -18 -18 -18 -18 -18 -18 -18 -18 -18
-18 -18 -18 -18 -18 -18 -18 -18 -18 -18 -18 -18 -18 -18 -18 -18 -18 -18 -19 -19 -19 -19 -19 -19 -19 -19 -18 -18 -18 -18 -18 -18 -18 -18 -18 -18 -18 -18 -18 -18 -18 -18
-18 -18 -18 -18 -18 -18 -18 -18 -18 -18 -18 -18 -18 -18 -18 -18 -18 -18 -19 -19 -19 -19 -19 -19 -19 -19 -19 -19 -19 -19 -19 -19 -18 -18 -18 -18 -18 -18 -18 -18 -18 -18
-18 -18 -18 -18 -18 -18 -18 -18 -18 -18 -18 -18 -18 -18 -18 -18 -19 -19 -19 -19 -19 -19 -19 -19 -19 -19 -19 -19 -19 -19 -19 -19 -19 -19 -18 -18 -18 -18 -18 -18 -18 -18
-19 -19 -19 -18 -18 -18 -18 -18 -18 -18 -18 -18 -18 -18 -18 -18 -19 -18 -18 -18 -19 -19 -19 -19 -19 -19 -19 -19 -19 -19 -19 -19 -19 -19 -19 -19 -18 -18 -18 -18 -18 -18
-19 -19 -19 -19 -19 -19 -19 -18 -18 -18 -18 -18 -18 -18 -18 -19 -19 -19 -18 -18 -18 -18 -18 -19 -19 -19 -19 -19 -19 -19 -19 -19 -19 -19 -19 -19 -19 -19 -19 -19 -18 -18
-19 -19 -19 -19 -19 -19 -19 -19 -19 -19 -18 -18 -18 -18 -19 -19 -19 -19 -19 -19 -18 -18 -18 -19 -19 -19 -19 -19 -19 -19 -19 -19 -19 -19 -19 -19 -19 -19 -19 -19 -19 -19
-19 -19 -19 -19 -19 -19 -19 -19 -19 -19 -19 -19 -19 -19 -19 -19 -19 -19 -18 -18 -18 -18 -18 -19 -19 -19 -19 -19 -19 -19 -19 -19 -19 -19 -19 -19 -19 -19 -19 -19 -19 -19
-19 -19 -19 -19 -19 -19 -19 -19 -19 -19 -19 -19 -19 -19 -19 -19 -19 -19 -18 -18 -18 -18 -18 -18 -19 -19 -19 -19 -19 -19 -19 -19 -19 -19 -19 -19 -19 -19 -19 -19 -19 -19
-19 -19 -19 -19 -19 -19 -19 -19 -19 -19 -19 -19 -19 -19 -20 -19 -19 -19 -19 -19 -18 -18 -18 -18 -18 -19 -19 -19 -19 -19 -19 -19 -19 -19 -19 -19 -19 -19 -19 -19 -19 -19
-20 -20 -20 -20 -20 -20 -20 -20 -20 -19 -19 -19 -19 -19 -20 -20 -20 -20 -19 -19 -19 -19 -19 -19 -19 -19 -19 -19 -19 -19 -19 -19 -19 -19 -19 -19 -19 -19 -19 -19 -19 -19
-20 -20 -20 -20 -20 -20 -20 -20 -20 -20 -20 -20 -19 -19 -20 -20 -20 -20 -20 -20 -19 -19 -19 -19 -19 -19 -19 -19 -19 -19 -19 -19 -19 -19 -19 -19 -19 -19 -19 -19 -19 -19
-20 -20 -20 -20 -21 -21 -21 -20 -20 -20 -20 -20 -20 -20 -20 -20 -20 -20 -20 -20 -20 -20 -20 -19 -20 -20 -19 -19 -19 -19 -19 -19 -19 -19 -19 -19 -19 -19 -19 -19 -19 -19
-21 -21 -21 -21 -21 -21 -21 -21 -21 -21 -21 -21 -21 -21 -21 -20 -20 -20 -20 -20 -20 -20 -20 -20 -20 -20 -20 -20 -20 -20 -20 -20 -20 -20 -20 -19 -19 -19 -19 -19 -19 -19
-21 -21 -21 -21 -21 -21 -21 -21 -21 -21 -21 -21 -21 -21 -21 -21 -21 -21 -21 -21 -21 -21 -21 -21 -21 -21 -21 -21 -21 -20 -20 -20 -20 -20 -20 -20 -20 -20 -20 -20 -20 -20
-21 -21 -21 -21 -21 -21 -21 -21 -22 -22 -22 -22 -21 -21 -21 -21 -21 -21 -21 -21 -21 -21 -21 -21 -21 -21 -21 -21 -21 -21 -21 -21 -21 -21 -21 -20 -20 -20 -20 -20 -20 -20
-22 -22 -22 -21 -21 -21 -22 -22 -22 -22 -22 -22 -22 -22 -22 -21 -21 -21 -21 -21 -21 -21 -21 -21 -21 -21 -21 -21 -21 -21 -21 -21 -21 -21 -21 -21 -21 -21 -21 -21 -20 -20
Height
5744 5746 5746 5746 5746 5745 5745 5745 5746 5746 5746 5747 5747 5747 5747 5747 5748 5748 5748 5748 5748 5748 5748 5749 5749 5749 5750 5750 5750 5750 5751 5751 5751 5751 5752 5752 5753 5753 5754 5754 5754 5754
5741 5743 5743 5743 5744 5744 5743 5743 5744 5744 5744 5745 5745 5745 5746 5746 5746 5746 5746 5746 5746 5746 5746 5746 5747 5747 5747 5747 5748 5748 5748 5749 5749 5749 5750 5750 5751 5751 5752 5752 5752 5753
5739 5740 5741 5741 5742 5742 5742 5741 5741 5742 5742 5743 5743 5744 5744 5744 5744 5744 5744 5744 5744 5744 5744 5744 5744 5745 5745 5745 5745 5745 5746 5746 5746 5747 5747 5748 5748 5749 5749 5750 5750 5751
5737 5738 5739 5739 5740 5741 5741 5740 5739 5740 5741 5741 5741 5741 5742 5741 5741 5741 5741 5742 5742 5742 5742 5742 5743 5743 5743 5743 5743 5743 5743 5744 5744 5744 5745 5745 5746 5746 5747 5747 5748 5748
5735 5735 5736 5737 5738 5739 5739 5739 5738 5738 5738 5739 5739 5739 5739 5739 5739 5739 5739 5739 5739 5740 5740 5740 5741 5741 5741 5741 5741 5741 5741 5742 5742 5742 5743 5743 5743 5744 5744 5745 5745 5746
5732 5732 5733 5734 5736 5737 5737 5737 5736 5736 5736 5737 5737 5736 5737 5737 5737 5736 5737 5737 5737 5738 5738 5739 5739 5739 5739 5739 5739 5739 5739 5739 5740 5740 5740 5741 5741 5742 5742 5743 5743 5744
5729 5729 5730 5731 5733 5734 5735 5735 5734 5734 5734 5734 5734 5734 5734 5735 5735 5735 5735 5735 5735 5736 5736 5737 5737 5737 5737 5737 5737 5736 5736 5736 5737 5737 5738 5738 5739 5739 5740 5740 5741 5741
5726 5726 5727 5729 5730 5731 5732 5733 5732 5732 5732 5732 5732 5732 5733 5733 5733 5733 5733 5733 5733 5733 5733 5734 5734 5734 5735 5735 5735 5735 5734 5734 5734 5734 5735 5735 5736 5736 5737 5737 5738 5738
5723 5723 5724 5725 5726 5728 5729 5730 5730 5730 5730 5730 5730 5730 5730 5731 5731 5732 5731 5730 5730 5730 5730 5731 5731 5731 5732 5732 5732 5732 5732 5732 5732 5732 5732 5733 5733 5733 5734 5735 5735 5735
5719 5720 5721 5721 5722 5723 5724 5725 5726 5726 5727 5727 5727 5727 5727 5728 5729 5729 5729 5728 5728 5728 5728 5728 5728 5728 5729 5730 5730 5730 5730 5730 5730 5730 5730 5730 5731 5731 5731 5732 5732 5733
5715 5716 5717 5717 5717 5718 5719 5720 5721 5722 5723 5724 5724 5724 5724 5724 5725 5726 5726 5726 5726 5726 5725 5725 5725 5725 5726 5727 5728 5729 5729 5728 5728 5728 5728 5728 5728 5729 5729 5729 5730 5730
5711 5712 5713 5713 5714 5714 5715 5716 5716 5718 5719 5720 5719 5719 5720 5720 5721 5723 5723 5723 5723 5722 5722 5721 5722 5723 5724 5724 5725 5726 5726 5726 5725 5725 5725 5726 5726 5726 5727 5727 5727 5727
5707 5707 5708 5709 5710 5710 5711 5711 5712 5713 5715 5715 5715 5714 5715 5716 5717 5719 5719 5720 5719 5719 5718 5718 5719 5720 5721 5722 5722 5722 5723 5723 5722 5721 5722 5723 5723 5724 5724 5724 5724 5725
5702 5702 5703 5704 5704 5705 5706 5707 5708 5709 5710 5712 5712 5711 5711 5712 5713 5714 5715 5716 5716 5716 5715 5715 5716 5716 5717 5717 5718 5719 5719 5719 5719 5718 5719 5719 5720 5720 5720 5720 5720 5721
5697 5698 5699 5699 5699 5700 5701 5702 5703 5704 5705 5707 5707 5707 5707 5708 5709 5710 5710 5711 5712 5712 5712 5712 5712 5712 5712 5712 5713 5714 5715 5715 5715 5715 5715 5715 5716 5716 5717 5716 5716 5717
5693 5693 5694 5694 5695 5695 5695 5696 5697 5698 5699 5700 5701 5702 5702 5703 5704 5705 5706 5707 5708 5708 5708 5708 5707 5707 5708 5707 5707 5708 5710 5711 5711 5711 5711 5711 5712 5712 5712 5712 5712 5713
5688 5688 5688 5689 5689 5689 5690 5690 5691 5691 5692 5693 5694 5695 5697 5698 5699 5700 5701 5702 5703 5704 5704 5703 5703 5703 5703 5702 5702 5703 5704 5706 5706 5707 5707 5707 5708 5708 5708 5708 5708 5708
5682 5682 5683 5683 5683 5684 5684 5685 5685 5685 5686 5687 5688 5689 5691 5692 5693 5694 5695 5696 5697 5698 5699 5699 5698 5698 5697 5697 5698 5698 5699 5700 5701 5701 5701 5702 5703 5703 5703 5703 5703 5703
5677 5677 5677 5678 5678 5678 5678 5679 5679 5680 5680 5681 5682 5683 5684 5685 5686 5687 5688 5689 5691 5692 5693 5693 5693 5693 5692 5692 5692 5693 5693 5694 5695 5695 5695 5695 5696 5697 5698 5698 5698 5698
5671 5672 5672 5673 5673 5673 5673 5673 5673 5673 5674 5675 5675 5676 5676 5677 5679 5680 5681 5683 5684 5685 5686 5686 5687 5686 5686 5686 5687 5688 5688 5688 5688 5688 5688 5689 5689 5690 5691 5691 5691 5691
5665 5666 5667 5667 5667 5667 5667 5667 5667 5667 5667 5668 5668 5669 5669 5670 5671 5672 5674 5676 5677 5679 5679 5679 5679 5679 5679 5680 5680 5681 5682 5682 5681 5681 5682 5683 5682 5682 5683 5684 5684 5684
5659 5660 5660 5660 5660 5660 5660 5661 5661 5661 5661 5661 5662 5662 5663 5664 5664 5665 5666 5668 5669 5671 5672 5671 5671 5672 5672 5673 5673 5674 5674 5674 5674 5674 5675 5675 5675 5674 5674 5675 5676 5676
5653 5653 5654 5654 5653 5654 5654 5654 5654 5654 5655 5655 5655 5656 5656 5657 5658 5659 5660 5661 5662 5663 5663 5663 5662 5663 5664 5665 5666 5667 5667 5667 5667 5667 5667 5667 5667 5666 5666 5666 5666 5667
5645 5646 5646 5647 5647 5647 5647 5647 5647 5648 5648 5648 5649 5649 5650 5651 5652 5653 5654 5655 5655 5656 5656 5655 5655 5656 5656 5657 5657 5658 5658 5659 5659 5659 5659 5659 5659 5660 5659 5658 5658 5659
5637 5638 5638 5639 5639 5640 5640 5641 5641 5641 5641 5641 5642 5642 5643 5644 5645 5647 5648 5648 5648 5648 5649 5648 5648 5649 5649 5649 5649 5650 5650 5650 5650 5651 5652 5651 5651 5651 5651 5651 5651 5651
5630 5630 5631 5631 5632 5633 5633 5634 5634 5634 5634 5634 5634 5635 5635 5637 5639 5640 5640 5641 5641 5641 5642 5641 5641 5641 5642 5642 5642 5643 5643 5643 5643 5643 5643 5643 5643 5643 5642 5642 5644 5644
Wind_Speed
21 19 19 18 18 18 18 17 15 13 13 13 14 15 15 15 16 16 15 15 15 15 15 15 15 15 15 15 14 14 14 13 13 12 12 12 11 11 12 13 14 14
22 19 18 17 17 18 18 17 15 14 14 13 14 15 15 15 15 16 16 16 16 15 15 15 15 15 15 15 15 14 14 13 12 12 11 11 10 10 11 11 12 13
23 19 18 17 17 17 17 17 16 15 15 15 15 16 16 16 15 15 15 15 16 16 16 16 16 16 15 15 15 15 15 14 13 13 12 11 11 10 10 11 12 13
23 20 19 18 18 17 16 17 18 17 16 17 17 17 17 17 16 15 14 15 15 16 17 17 17 17 17 16 16 16 16 15 14 14 13 12 12 11 11 11 12 12
24 21 21 20 19 18 16 16 18 19 18 18 19 19 18 17 17 16 15 15 15 16 17 18 18 18 18 18 17 17 17 16 15 14 14 13 12 12 12 12 12 12
26 24 24 23 22 20 17 17 18 20 20 20 21 21 20 19 18 17 16 15 15 15 16 17 18 18 18 18 18 18 17 17 17 16 15 14 13 12 12 12 12 12
28 26 25 25 24 21 19 18 19 20 21 22 23 24 24 23 21 19 17 16 16 15 15 16 17 17 18 17 17 17 16 16 16 16 15 15 14 14 13 13 12 13
28 28 28 27 25 23 21 20 20 21 22 23 24 25 26 26 25 23 20 18 17 17 17 17 17 18 18 18 17 16 15 15 14 14 14 14 13 13 13 13 13 13
28 30 30 29 28 27 25 23 23 23 24 24 25 26 26 26 27 26 25 23 22 20 19 18 18 18 19 19 19 18 17 16 15 14 14 14 13 13 13 12 12 13
29 30 30 30 31 30 29 28 28 27 27 27 27 27 28 27 27 28 28 28 26 23 22 21 21 20 20 20 21 20 20 19 18 17 17 16 15 15 14 14 13 13
29 29 29 30 31 31 31 32 33 32 31 30 30 30 29 28 29 29 29 28 27 26 25 25 24 23 22 22 22 21 21 20 19 19 18 18 17 16 16 15 15 15
32 32 31 31 32 31 30 30 32 33 32 32 33 33 33 31 29 30 30 29 30 30 29 28 27 26 25 24 23 23 22 22 22 21 21 20 19 18 18 17 17 17
36 36 36 36 36 35 34 32 31 32 32 32 33 33 34 32 31 31 31 30 30 32 32 32 30 29 28 27 27 27 27 26 25 25 24 24 22 22 21 21 21 21
40 39 39 40 41 40 40 38 37 36 36 36 35 33 31 31 32 33 33 32 32 34 34 34 33 31 31 31 30 30 30 29 29 29 28 27 26 26 25 26 26 25
44 43 42 43 44 44 44 43 42 41 41 40 39 36 33 33 34 34 35 36 37 36 36 35 35 34 34 35 34 33 31 30 31 32 32 31 30 30 29 30 30 29
48 47 47 47 47 47 48 47 46 45 45 43 41 39 38 38 38 38 39 39 37 37 37 38 37 36 36 37 37 36 35 33 31 31 31 32 32 32 32 33 34 34
50 50 51 51 51 50 50 50 50 49 47 45 44 42 41 41 42 42 43 43 39 37 37 39 40 38 36 37 37 36 36 35 33 31 31 31 32 33 35 36 37 38
51 51 52 52 53 53 52 52 52 51 50 49 47 46 45 45 46 46 46 47 45 42 40 40 41 41 39 38 38 39 38 39 39 40 40 38 37 38 39 40 41 40
49 49 50 50 51 52 52 53 53 53 53 53 51 49 49 48 48 48 49 49 49 47 46 44 44 45 44 42 42 43 44 44 45 47 48 45 42 41 41 41 41 41
46 46 47 48 48 49 50 51 51 52 53 53 53 52 51 49 47 47 48 49 50 49 49 49 49 50 50 49 47 47 47 47 47 48 49 48 46 45 44 43 42 42
47 47 46 47 48 49 49 49 49 50 50 51 51 51 51 50 48 48 47 48 49 50 50 51 52 52 53 53 52 51 51 51 52 52 52 52 52 52 51 49 47 47
49 49 49 50 50 49 49 49 49 49 49 49 50 50 50 50 50 49 49 48 48 48 50 51 52 53 53 53 53 53 53 54 54 55 55 56 56 56 56 54 53 52
52 52 52 52 51 49 49 49 49 49 49 49 49 49 49 50 50 50 50 49 49 47 47 49 50 51 52 52 52 52 53 53 53 53 54 54 55 56 56 56 55 54
55 54 52 50 49 49 49 49 48 48 49 49 49 49 49 50 50 50 50 49 49 48 47 48 49 49 49 49 49 50 50 50 50 50 50 51 52 53 54 55 55 53
56 54 52 50 49 48 48 48 48 48 49 49 49 50 50 50 50 50 50 49 49 48 48 49 49 49 49 49 49 48 48 48 48 48 48 49 49 50 50 51 52 52
55 54 53 51 49 48 48 47 48 48 49 50 50 51 51 51 51 51 51 51 50 49 49 50 50 50 50 50 49 49 48 48 48 48 48 48 48 48 49 49 49 49
Wind_Direction
293 292 282 273 268 267 268 266 265 269 274 283 288 289 289 287 286 284 283 282 279 277 276 274 274 274 275 275 275 274 273 272 271 270 272 273 272 271 268 266 265 264
286 282 270 264 261 262 267 265 263 266 271 278 284 286 285 283 284 284 284 284 281 279 277 274 274 273 274 275 276 276 275 273 272 269 268 268 266 265 263 262 262 262
278 272 261 259 258 258 264 266 265 266 271 277 279 281 282 279 279 280 282 284 283 282 280 277 275 273 273 273 274 275 275 273 272 268 265 262 260 257 254 254 254 256
268 266 258 258 258 256 262 269 272 271 273 279 279 278 277 275 275 274 275 279 281 282 282 279 278 275 273 271 270 270 271 271 270 268 267 263 261 258 254 251 250 250
262 266 261 259 258 256 258 267 275 277 277 280 279 276 271 268 270 270 271 274 275 279 281 281 281 278 275 272 269 267 264 264 265 265 265 264 262 262 259 257 254 251
263 269 268 264 261 259 257 261 271 275 276 278 278 275 270 267 266 266 268 270 272 276 278 281 282 281 279 276 272 269 264 262 261 260 261 260 258 257 256 257 258 258
260 266 272 270 266 262 255 255 263 268 272 274 274 275 275 274 270 267 266 267 270 272 271 274 276 275 276 275 273 271 268 265 263 261 260 260 260 259 256 255 255 256
258 264 272 273 272 268 260 255 257 261 266 269 270 272 275 276 275 272 270 269 268 266 264 264 266 267 267 267 266 264 264 264 263 261 261 261 262 262 262 261 259 257
263 266 269 271 272 272 269 265 262 260 261 263 265 267 268 271 273 273 272 271 268 265 263 262 261 261 262 262 262 259 258 258 258 257 257 258 259 261 262 263 264 264
267 268 269 271 273 272 270 270 267 264 263 263 263 264 264 263 265 267 269 270 269 266 264 264 261 260 260 260 261 261 259 258 256 256 257 256 257 259 261 262 262 263
268 269 268 269 271 271 271 271 268 265 265 265 265 264 261 259 259 261 263 265 266 265 263 263 261 260 260 260 261 263 263 262 260 258 258 258 257 257 259 262 263 264
269 268 267 267 269 270 273 274 271 266 263 265 269 266 260 258 256 256 260 261 261 262 263 261 260 259 258 259 260 261 262 262 262 260 258 258 258 257 257 259 261 263
273 272 271 270 270 270 273 275 275 270 263 267 276 270 257 254 254 256 260 260 260 264 265 262 260 257 255 255 257 260 260 257 257 259 259 259 259 259 260 262 263 264
275 274 274 273 274 273 273 273 273 272 267 268 275 272 260 256 258 259 259 260 265 269 267 263 260 257 256 256 255 257 260 258 256 257 259 261 261 261 263 263 264 265
272 273 273 273 274 275 275 274 272 272 270 269 271 271 267 265 265 263 261 264 270 271 266 263 261 257 256 257 255 256 259 260 260 258 258 260 262 263 264 265 265 265
267 268 269 271 272 273 274 275 275 275 274 273 272 271 269 268 267 265 264 266 269 268 263 262 263 261 256 256 257 259 258 257 257 257 256 258 262 264 266 268 269 269
265 266 267 269 270 271 272 274 276 276 276 275 273 271 269 268 267 265 264 264 265 265 263 263 266 266 260 255 257 259 257 253 253 258 260 259 262 266 268 269 271 271
267 268 268 269 269 270 271 271 272 273 273 272 271 269 268 268 268 267 265 264 264 263 262 262 265 266 263 258 256 257 257 254 254 260 265 265 266 268 269 269 269 270
267 268 269 270 270 270 270 270 269 269 270 271 270 270 269 268 268 267 267 266 266 264 263 262 263 264 263 260 259 258 259 259 259 263 268 271 272 271 270 268 267 268
268 269 269 270 270 271 270 270 270 269 269 270 270 271 271 270 268 266 266 266 266 266 264 263 263 263 264 263 263 262 262 264 266 268 270 272 273 271 270 269 267 267
268 269 270 270 271 271 270 270 270 270 270 270 270 270 271 271 270 268 266 266 266 266 266 264 264 264 265 266 266 267 266 267 268 269 269 271 272 272 272 271 270 269
266 267 269 271 271 270 269 269 269 269 270 270 270 270 270 270 270 270 269 268 268 268 268 267 266 266 267 267 268 269 269 269 269 269 270 271 273 274 275 275 274 274
264 266 268 268 268 267 267 267 267 267 268 268 268 269 269 269 269 270 270 271 271 270 269 268 268 269 269 269 270 270 270 271 271 271 272 272 273 275 276 277 277 277
266 268 268 266 265 264 264 265 265 266 266 266 266 267 267 267 268 268 269 270 271 271 270 270 270 271 271 272 272 272 272 272 271 272 272 272 273 273 274 275 276 277
268 268 268 267 265 263 263 263 264 264 265 265 265 266 266 266 267 267 268 268 269 270 270 271 271 271 272 272 272 272 272 273 272 272 272 272 272 272 272 272 273 274
267 268 267 267 265 264 263 263 263 263 264 264 265 266 266 266 267 268 268 268 269 270 270 271 271 272 272 272 272 272 273 273 273 273 273 272 272 272 271 271 271 272